GFSNIL_con_lsi_048.txt.gz
Lid_Strength_Index
3 3 4 4 3 4 3 3 2 2 1 2 2 2 3 4 3 4 4 5 5 5
3 4 4 4 4 4 3 2 2 2 2 2 2 2 3 3 3 4 4 4 5 5
3 3 3 4 4 4 3 2 2 2 2 2 2 2 2 2 2 3 4 5 5 5
3 3 4 4 3 3 3 3 3 2 2 2 2 2 2 3 5 5 4 5 5 6
4 3 3 3 3 2 3 2 2 2 2 2 2 4 4 5 5 5 6 6 6 7
4 3 3 3 2 2 2 2 2 2 2 2 4 5 5 5 5 6 6 7 7 7
4 4 3 3 3 2 2 2 2 1 2 2 5 5 6 5 6 6 7 7 7 7
3 3 3 3 3 2 2 2 2 2 3 4 5 6 6 6 6 7 8 7 7 7
3 3 3 3 3 3 2 2 2 3 5 6 7 10 9 7 8 8 9 9 9 8
3 3 3 3 2 3 3 5 6 6 7 7 7 11 10 9 8 9 9 9 9 9
4 3 3 4 5 7 7 7 8 8 8 9 10 11 11 11 10 9 9 9 10 11
4 6 7 7 8 9 8 9 9 10 9 10 11 12 11 10 11 12 13 13 12 12
7 8 8 9 10 10 10 12 12 12 12 12 12 12 11 11 13 14 15 14 14 13
9 10 11 11 11 12 13 14 15 15 15 14 13 12 11 12 13 14 15 15 16 15

GFSNIL_con_lsi_051.txt.gz
Lid_Strength_Index
1 1 1 1 1 1 1 0 -0 -0 -1 -1 -1 -1 -1 -0 -0 -0 -0 1 2 3
1 1 1 1 1 0 0 0 -0 -0 -0 -0 -1 -1 -0 -0 0 -0 0 1 2 3
1 0 0 1 1 1 0 1 1 -0 -0 -0 -0 -0 -0 0 -0 0 2 2 3 3
1 1 1 1 2 2 2 2 2 1 1 0 0 -0 0 0 0 2 2 2 3 3
2 2 2 2 1 1 2 2 2 2 1 1 1 0 1 1 2 3 3 4 4 4
3 3 3 2 2 1 1 1 1 1 1 1 1 1 1 1 3 3 3 3 4 5
3 3 3 2 2 2 2 1 1 1 1 0 1 1 2 2 2 3 2 3 5 5
3 3 3 2 2 2 2 2 1 1 1 0 1 2 3 3 4 5 6 6 6 6
2 3 2 2 2 2 2 1 1 1 1 1 2 7 8 6 5 5 6 8 9 9
2 2 2 2 2 2 2 1 1 2 2 3 3 10 9 10 7 8 9 9 10 11
2 2 2 2 2 2 2 2 3 5 5 7 8 11 11 11 9 10 10 9 10 12
2 2 2 2 5 6 7 8 9 9 9 10 11 12 12 11 12 13 13 12 12 13
2 4 5 7 9 10 10 12 13 13 12 13 12 12 12 12 14 15 15 15 14 14
5 7 9 10 11 12 13 14 15 15 15 14 13 13 13 13 14 15 15 16 16 15

GFSNIL_con_lsi_054.txt.gz
Lid_Strength_Index
0 1 1 0 0 0 0 0 -0 -1 -1 -1 -1 -1 -1 -0 -0 -1 -0 0 0 0
1 1 1 0 0 0 -0 -0 -0 -1 -0 -0 -1 -1 -1 -0 -0 -0 -0 -0 -0 0
0 0 0 0 0 0 -0 -0 -0 -0 -0 -0 -0 -1 -0 -0 -0 0 -0 -0 0 0
1 0 0 0 0 0 -0 -0 0 -0 -0 0 -0 -0 -0 0 0 0 0 0 0 1
1 0 1 1 0 -0 0 -0 -0 -0 0 0 0 -0 0 1 0 1 1 1 1 1
1 1 1 1 0 0 0 0 -0 -0 0 0 0 0 0 1 0 1 1 1 1 2
1 1 1 1 0 0 0 0 0 0 0 0 0 0 0 0 0 0 0 0 1 1
1 1 1 1 1 1 1 1 1 1 1 0 0 0 0 0 1 1 1 1 2 2
1 1 1 1 1 1 1 1 1 1 1 1 1 6 7 3 1 1 2 5 6 6
1 1 1 1 1 1 1 1 1 1 1 1 0 9 9 8 1 3 5 7 9 10
2 2 1 1 1 1 1 1 1 1 1 1 1 9 9 11 7 8 9 10 10 12
2 2 2 2 2 1 2 2 3 4 5 6 8 11 12 11 11 12 12 12 12 13
1 2 2 2 2 4 6 11 12 13 12 13 13 13 12 12 14 15 15 16 15 14
1 2 2 5 8 11 13 14 15 15 15 14 14 14 13 13 14 15 16 16 16 15

GFSNIL_con_lsi_057.txt.gz
Lid_Strength_Index
1 1 1 1 1 1 1 1 0 -0 -0 -0 -0 -0 -0 -0 0 0 0 0 0 1
1 1 1 1 0 0 0 0 -0 -0 -0 -0 -0 -0 -0 0 0 0 0 0 0 1
1 1 0 0 1 0 0 -0 0 0 0 -0 -0 -0 -0 0 0 0 0 0 1 1
1 1 1 1 0 0 0 0 0 0 0 0 0 0 0 0 0 1 1 0 1 1
1 1 1 1 1 0 0 -0 0 0 0 0 0 0 0 1 0 1 1 1 1 1
1 1 1 1 1 0 0 0 0 0 1 1 0 0 0 0 1 1 1 1 1 1
1 1 1 1 1 1 0 1 1 0 0 0 0 0 0 0 1 1 1 1 1 1
1 1 1 1 1 1 1 1 0 1 1 0 0 1 1 1 1 1 1 1 1 0
1 1 1 1 1 1 1 1 1 1 1 1 1 5 8 4 1 1 1 2 1 1
1 2 1 1 1 1 1 1 1 1 1 1 1 8 9 9 1 1 1 1 1 5
2 2 2 2 2 1 1 1 1 1 1 1 1 9 9 10 2 1 3 3 5 8
2 2 2 2 2 2 2 2 2 1 1 2 3 10 10 9 9 11 12 12 12 12
1 2 2 2 2 1 1 2 7 11 11 13 12 11 11 10 12 15 16 16 15 14
1 2 1 1 1 5 8 12 13 14 15 14 14 14 13 13 14 15 16 16 17 16

GFSNIL_con_lsi_063.txt.gz
Lid_Strength_Index
2 3 3 3 3 3 3 3 1 1 2 2 1 1 1 1 1 1 1 2 2 2
1 2 3 3 3 3 3 2 2 1 1 1 1 0 1 1 1 1 2 2 2 2
1 1 1 2 3 3 3 2 2 1 1 1 0 0 1 1 1 1 1 1 2 1
1 1 1 2 2 2 3 3 2 1 1 1 1 1 1 1 1 1 1 1 1 1
1 1 1 1 1 2 2 2 2 2 1 1 1 1 1 1 1 1 2 2 2 2
2 2 2 1 1 1 1 2 2 2 2 2 2 1 1 1 1 1 1 2 2 2
3 3 2 1 2 2 1 1 2 1 2 2 1 1 1 1 1 1 1 1 1 1
3 3 2 2 1 1 1 1 1 1 1 1 1 2 1 1 1 1 1 1 1 1
3 3 3 3 3 2 1 1 1 1 1 1 1 5 7 4 2 2 2 2 2 2
3 3 2 2 3 3 2 2 2 2 1 2 1 7 8 9 2 2 2 2 2 2
4 4 3 3 2 2 2 2 2 2 2 2 1 7 8 10 4 2 2 2 2 2
4 5 7 4 3 3 2 2 2 2 2 2 2 9 10 10 5 4 12 13 12 10
6 7 7 6 6 3 3 3 3 9 12 13 11 14 12 10 9 15 16 16 15 15
9 9 9 8 8 5 6 13 15 16 15 15 14 14 12 12 12 14 16 16 16 15

GFSNIL_con_lsi_066.txt.gz
Lid_Strength_Index
2 3 4 3 3 3 3 3 3 3 3 3 3 3 3 2 2 3 3 3 3 2
2 3 4 4 3 3 3 2 2 2 2 2 2 1 2 3 2 2 2 2 2 2
2 2 3 4 4 3 3 3 2 1 1 1 1 1 2 2 2 2 2 1 1 1
1 1 1 2 3 3 3 3 3 2 1 1 1 2 2 1 1 2 1 1 2 2
1 1 1 1 2 3 3 3 3 3 1 1 1 1 2 2 1 1 2 2 2 2
3 2 2 1 1 1 2 3 3 3 3 3 1 1 1 1 1 1 1 1 2 2
4 3 3 1 1 1 1 2 2 3 3 3 3 2 1 1 1 1 1 1 1 1
4 3 3 3 3 2 1 1 1 2 2 2 3 3 3 2 2 2 2 1 1 1
3 3 3 4 4 3 3 3 2 2 1 2 2 5 8 5 3 2 3 2 1 1
7 5 3 3 3 4 4 3 3 3 3 3 1 6 8 8 3 2 2 2 2 2
8 6 7 7 5 3 2 3 3 4 4 3 3 8 9 9 4 3 3 2 3 2
9 9 9 10 9 8 8 3 3 2 3 3 3 8 10 9 4 4 3 3 6 6
10 11 10 9 10 9 9 9 5 3 3 5 3 10 11 9 4 4 6 14 14 13
12 12 12 12 10 9 9 10 10 12 15 14 15 15 13 12 7 8 15 16 17 16

GFSNIL_con_lsi_069.txt.gz
Lid_Strength_Index
3 2 3 2 2 2 2 3 3 3 3 3 3 3 2 3 3 3 4 4 3 4
2 3 4 3 3 2 2 2 3 3 3 3 3 3 3 3 3 3 3 4 3 3
2 2 4 4 4 4 4 3 2 3 3 2 2 2 2 3 3 2 3 3 4 4
2 2 3 4 4 4 3 3 3 1 1 2 2 2 2 2 3 3 2 2 3 2
3 2 2 2 3 3 3 3 3 3 2 1 1 2 1 1 1 2 2 2 2 2
4 4 3 1 1 1 3 3 3 3 3 2 1 1 1 1 2 2 2 1 2 2
4 4 4 3 3 3 1 2 2 3 3 3 3 2 1 1 2 2 2 2 2 1
3 3 3 3 3 3 3 3 3 2 2 2 3 3 3 2 2 2 2 2 2 2
7 4 3 2 3 3 3 2 3 3 3 3 3 5 7 6 4 3 3 3 2 2
8 8 8 7 7 3 3 2 3 3 3 3 3 8 9 10 3 3 3 3 3 3
11 10 10 9 8 9 8 7 5 2 2 2 3 8 9 9 5 4 4 3 3 3
13 13 12 11 11 10 9 9 9 8 7 4 2 7 10 9 5 5 4 4 4 4
14 14 13 13 13 12 10 9 9 10 13 14 14 14 14 12 5 5 5 5 5 15
15 14 14 13 13 12 12 11 12 14 14 15 15 14 14 13 11 8 8 14 17 17

GFSNIL_con_lsi_075.txt.gz
Lid_Strength_Index
1 2 2 2 2 1 1 1 2 2 2 2 2 2 3 3 3 3 3 2 2 2
1 1 1 1 1 1 1 1 2 2 2 2 2 2 2 3 3 4 3 3 2 3
1 1 1 1 1 1 1 1 1 1 2 2 2 2 2 2 2 3 3 3 3 3
1 1 0 1 1 1 1 2 2 2 2 2 1 1 2 2 2 3 3 2 3 3
1 1 1 1 0 0 1 1 2 2 2 1 1 0 1 1 1 2 2 2 2 2
3 2 1 1 1 1 0 0 1 1 2 1 1 0 1 1 1 1 1 1 1 1
3 3 3 2 1 0 0 1 1 1 0 0 1 1 1 1 1 1 1 0 1 1
8 7 6 4 3 2 2 1 1 1 0 0 0 1 1 1 2 1 1 1 0 0
10 10 9 8 8 7 7 6 4 3 3 3 6 13 12 9 2 1 1 1 1 0
12 11 11 10 10 10 9 8 8 9 9 11 14 14 13 13 9 5 3 3 3 2
13 12 12 11 10 10 9 9 11 12 13 12 13 14 14 14 10 8 6 4 4 4
14 14 13 13 12 11 11 12 13 14 14 14 15 14 14 13 10 8 7 12 13 14
15 15 15 14 14 13 13 14 14 15 15 15 15 15 15 13 10 10 12 14 15 14
16 16 15 15 14 14 15 15 16 16 15 16 16 15 15 15 14 14 15 15 15 15

GFSNIL_con_lsi_078.txt.gz
Lid_Strength_Index
1 1 1 1 1 1 1 1 0 2 2 3 3 3 3 3 3 2 1 1 1 1
1 1 1 1 1 1 0 0 0 1 2 2 2 3 3 3 3 3 2 2 2 2
1 0 1 1 1 0 0 0 0 1 2 2 2 2 2 3 3 3 3 3 3 2
1 1 1 1 1 0 0 0 1 0 1 1 2 2 3 2 3 4 3 3 3 3
1 1 1 1 1 0 1 0 0 0 1 1 1 2 2 2 2 2 3 3 2 2
1 1 1 1 0 0 0 0 1 1 1 1 1 1 1 1 1 1 1 1 2 2
3 2 1 1 1 0 0 1 1 1 1 0 0 1 1 1 1 1 1 0 1 1
8 7 6 6 5 3 2 1 0 1 0 0 4 10 8 1 1 1 1 1 1 0
10 10 10 9 9 7 7 6 7 8 9 10 12 14 13 11 4 2 1 2 1 1
10 11 11 10 10 10 10 10 11 11 11 14 14 15 14 14 11 8 6 5 6 4
12 11 10 10 9 9 11 12 14 14 14 15 16 16 15 15 10 8 12 14 14 13
13 13 11 11 11 11 11 12 13 13 14 13 15 15 14 11 8 12 14 15 15 14
14 13 13 13 13 12 12 13 13 13 13 15 14 16 15 12 12 15 15 16 16 16
14 14 14 13 13 13 14 14 14 14 14 15 16 16 16 15 14 16 16 17 17 16

GFSNIL_con_lsi_081.txt.gz
Lid_Strength_Index
1 1 1 1 1 1 1 1 1 2 2 3 2 2 1 1 0 0 0 1 1 1
1 1 1 1 1 1 1 1 0 1 3 3 3 2 2 2 1 1 1 1 1 1
1 1 1 1 1 1 0 0 0 0 1 3 3 3 3 3 3 3 3 3 3 2
1 1 1 1 1 1 0 0 1 1 1 2 2 3 3 3 3 4 4 3 3 3
1 1 1 1 0 0 1 0 1 1 1 1 1 2 2 3 3 3 3 4 4 4
1 1 1 1 1 0 1 1 1 1 1 1 1 1 1 2 2 2 3 3 3 2
2 1 1 1 1 1 1 1 1 1 1 1 1 2 2 1 2 1 1 1 1 1
7 7 6 6 4 2 4 4 4 2 6 9 10 12 11 6 2 1 1 0 1 1
9 9 9 8 7 8 9 9 9 11 11 12 13 14 13 12 5 3 3 3 5 4
11 10 10 10 11 11 12 12 12 12 13 15 15 14 14 14 8 9 12 12 12 10
11 11 10 10 12 13 13 14 14 14 14 15 15 15 14 14 11 14 15 15 15 15
11 11 11 12 12 12 13 14 14 14 13 14 16 15 14 11 12 14 15 15 15 15
14 12 13 13 13 13 12 13 13 14 14 14 15 16 14 13 14 15 16 16 16 16
14 14 13 13 13 13 13 13 14 15 15 15 16 16 16 15 14 15 15 16 17 16

GFSNIL_con_lsi_084.txt.gz
Lid_Strength_Index
1 2 2 2 1 2 1 2 1 1 2 2 2 2 2 2 2 2 2 2 2 2
1 1 2 1 1 1 1 1 2 1 2 3 2 2 2 2 2 2 2 2 2 2
1 1 1 1 2 1 1 1 1 1 2 3 3 3 3 3 2 2 2 3 3 3
2 1 1 1 1 1 1 1 1 1 1 3 3 3 3 3 3 3 4 3 3 3
1 1 2 1 1 1 1 1 1 1 1 2 3 3 3 4 3 4 4 4 4 4
2 2 2 2 1 1 1 1 1 1 1 1 2 3 3 3 4 4 4 4 4 4
5 3 3 2 1 1 1 1 1 2 6 7 8 8 6 2 2 3 3 3 2 3
7 6 5 6 6 6 6 7 6 9 10 11 11 12 12 8 4 2 2 2 1 5
9 8 9 9 10 10 10 10 11 12 13 13 13 14 13 12 5 8 8 9 9 9
10 10 11 11 12 12 12 13 13 14 14 14 14 13 12 12 11 13 13 14 13 12
11 11 11 12 13 13 14 14 14 15 15 15 15 13 13 14 14 15 15 15 14 15
12 12 13 13 14 14 14 15 15 15 16 16 16 14 13 14 15 15 16 16 16 16
13 14 13 13 14 13 14 15 16 17 16 17 17 15 14 14 15 16 17 17 17 16
15 14 15 14 14 14 15 15 16 17 17 17 17 16 15 14 15 16 17 18 18 17

GFSNIL_con_lsi_087.txt.gz
Lid_Strength_Index
2 3 2 2 2 2 2 2 2 1 1 1 1 2 1 2 2 2 2 3 2 3
3 2 2 2 2 2 2 1 2 2 1 1 2 2 2 2 2 2 2 3 2 2
2 2 2 1 2 2 1 1 2 2 2 2 2 2 2 3 2 2 2 3 3 3
2 1 1 1 1 1 1 1 2 2 2 2 3 3 2 3 2 3 3 3 3 3
2 2 2 2 2 1 1 1 1 1 2 2 3 3 3 3 3 3 3 4 4 4
2 2 2 2 1 1 1 1 1 1 1 2 2 3 3 3 3 3 3 3 4 4
4 4 4 4 3 2 2 4 6 7 7 7 8 6 4 3 4 3 3 3 3 4
7 6 7 8 8 8 8 8 8 9 10 10 11 12 9 5 4 3 4 5 9 10
9 10 10 10 10 11 11 12 11 12 12 12 12 13 12 9 10 10 9 10 10 12
11 12 12 12 12 13 13 13 14 14 13 13 12 12 12 13 13 13 13 13 13 13
12 12 13 13 13 13 14 15 15 15 15 14 13 14 14 14 14 15 15 15 15 14
12 13 13 14 15 14 15 15 16 16 16 15 15 14 15 15 16 16 16 16 16 16
14 13 14 15 15 15 16 17 17 17 16 16 16 15 15 16 17 18 18 17 17 15
15 16 15 15 15 16 16 17 17 18 18 17 17 16 16 16 17 18 18 18 18 16

GFSNIL_con_lsi_090.txt.gz
Lid_Strength_Index
3 3 3 2 2 2 2 2 2 1 1 1 1 1 0 1 1 1 2 2 3 3
3 3 3 2 2 3 2 2 2 2 2 2 1 1 1 1 2 1 2 3 2 2
3 3 2 2 3 2 2 2 2 2 2 2 1 1 2 2 2 2 2 2 3 3
3 2 2 2 2 2 2 2 2 2 2 2 2 1 3 3 2 2 3 2 3 3
2 2 2 2 2 2 2 2 2 2 2 2 2 2 2 3 3 3 3 3 3 4
3 2 2 2 1 1 1 1 1 2 2 2 2 2 3 3 3 3 3 3 3 4
5 5 4 4 4 4 5 5 6 6 6 6 6 4 3 3 3 3 3 3 3 3
8 8 7 8 8 9 9 9 9 9 10 9 9 10 7 4 3 4 8 9 10 11
10 11 11 11 11 11 12 12 11 12 11 11 11 12 12 9 8 9 10 12 12 12
12 12 13 12 13 13 14 13 13 13 13 13 13 13 13 13 12 13 13 13 13 13
13 13 14 14 14 15 14 15 15 14 14 14 14 14 14 14 14 15 15 15 14 13
14 14 15 15 16 15 16 16 16 15 14 15 15 15 15 15 16 17 16 16 15 14
15 15 16 16 16 16 16 17 16 17 16 15 15 15 15 16 17 18 17 17 16 16
15 15 15 16 16 16 17 17 17 17 17 17 16 16 16 16 17 18 18 18 17 16

GFSNIL_con_lsi_093.txt.gz
Lid_Strength_Index
4 4 4 3 2 2 2 1 1 2 1 1 1 1 1 1 1 1 1 2 2 3
3 4 4 3 2 1 1 2 2 1 1 1 1 1 1 1 1 1 1 1 2 3
4 3 3 3 3 2 3 3 3 3 2 2 2 2 2 1 1 1 1 2 2 3
4 3 3 3 3 3 3 3 3 2 2 3 2 2 2 2 2 2 2 2 2 3
3 3 2 3 3 3 3 3 3 2 2 2 2 2 2 2 3 3 3 3 3 3
2 2 2 2 2 2 2 2 2 2 2 2 2 2 2 2 3 3 3 3 3 3
3 3 3 4 3 4 4 5 6 5 6 5 5 3 2 2 2 3 3 3 3 3
8 7 7 8 8 9 8 9 8 9 9 9 9 10 9 3 3 6 8 9 10 10
12 11 11 12 12 11 11 11 11 11 12 12 12 12 11 7 7 9 10 12 13 13
13 14 14 14 13 13 13 13 13 13 14 14 13 13 13 13 12 12 12 13 13 14
15 16 15 15 15 15 14 14 14 14 14 15 15 14 14 14 14 15 15 14 13 14
15 16 16 17 17 16 16 16 15 15 15 15 15 15 15 15 15 16 16 15 15 15
15 16 16 16 16 16 16 17 16 16 16 16 16 15 15 15 16 17 17 16 16 16
16 15 16 15 16 16 17 17 17 17 17 17 16 16 15 15 16 17 17 17 17 16

GFSNIL_con_lsi_096.txt.gz
Lid_Strength_Index
3 4 4 3 3 2 2 2 2 2 2 2 2 1 1 1 1 2 1 1 2 2
4 4 4 3 3 2 2 2 3 2 2 1 1 1 1 1 1 2 1 1 2 2
4 4 3 3 3 3 2 2 1 1 2 1 1 1 1 1 1 1 1 1 2 2
4 3 3 3 3 2 2 2 3 2 2 2 2 2 2 2 2 2 2 1 2 2
3 3 3 3 3 3 3 3 3 3 3 3 2 2 2 2 2 2 2 2 2 3
3 3 3 3 3 3 3 4 3 3 2 2 2 2 2 2 2 2 2 2 2 3
8 3 2 2 2 3 3 3 4 5 6 6 5 4 3 2 2 2 2 3 2 2
11 10 8 6 7 8 8 8 8 8 9 9 9 10 9 5 2 3 7 9 10 9
13 13 13 12 11 11 11 11 11 12 12 12 12 13 12 7 7 8 9 11 12 13
14 14 15 15 14 14 13 13 13 14 14 14 14 13 13 12 11 12 12 12 13 14
15 15 15 16 16 15 15 15 15 15 15 15 14 14 14 14 14 14 14 13 14 15
16 16 16 16 16 16 16 16 16 15 15 16 15 14 14 14 15 16 16 15 15 14
16 16 17 17 17 17 16 17 16 17 16 15 16 14 14 15 15 16 16 16 16 15
16 16 17 17 17 17 17 17 17 17 17 16 16 15 15 15 16 16 17 17 17 16

GFSNIL_con_lsi_099.txt.gz
Lid_Strength_Index
2 2 2 1 1 1 1 1 1 1 1 1 1 1 0 1 1 1 1 1 1 1
2 2 2 1 1 1 1 1 1 1 2 2 2 1 1 1 1 1 1 1 1 1
2 1 2 2 2 1 1 2 1 1 2 2 2 0 1 1 1 1 1 1 1 1
2 3 3 3 2 2 1 1 1 2 2 1 1 1 1 1 1 2 1 1 1 2
2 2 2 2 2 1 1 1 2 2 1 2 1 2 2 2 2 2 2 2 2 2
9 3 2 2 2 2 2 2 2 2 2 2 2 2 2 2 1 1 1 1 2 2
11 10 7 2 2 2 2 1 1 2 3 3 3 3 2 1 1 1 1 1 1 2
12 12 12 9 10 3 5 6 6 7 9 9 9 10 8 5 2 1 4 7 9 10
13 13 13 13 12 12 10 11 11 12 12 12 11 12 11 6 6 7 9 10 11 12
13 14 13 14 15 15 15 14 14 14 14 14 13 12 12 12 10 11 12 12 12 13
15 15 14 15 16 16 16 16 15 15 14 14 14 14 13 13 12 13 14 14 13 14
16 16 16 16 16 16 17 17 16 15 15 15 15 14 14 14 14 15 15 15 15 15
16 16 17 17 17 17 16 17 17 17 16 15 15 14 14 15 15 16 16 15 16 15
16 16 16 17 17 17 17 17 18 18 18 17 16 15 15 15 16 16 17 17 17 16

GFSNIL_con_lsi_102.txt.gz
Lid_Strength_Index
1 1 1 1 2 2 2 1 0 0 1 0 0 0 0 1 0 0 1 1 1 1
1 1 2 2 1 1 1 1 0 0 1 1 1 0 1 1 1 1 1 1 1 1
2 1 1 1 2 1 1 1 1 1 1 1 1 1 1 1 1 1 1 1 1 1
2 1 1 2 1 1 1 1 1 1 1 1 1 1 1 1 1 1 1 1 1 1
7 4 2 2 2 1 1 1 1 1 1 1 1 1 1 1 1 2 2 2 2 2
11 9 8 2 1 1 1 1 1 1 1 1 1 1 1 1 1 1 1 1 2 2
11 11 11 8 4 1 1 1 1 1 1 1 1 1 1 1 1 1 1 1 1 1
12 11 12 12 11 9 5 2 2 4 5 5 5 9 6 3 1 2 2 5 6 8
14 12 12 13 13 13 13 11 9 9 8 10 12 13 12 8 4 5 5 8 9 10
15 15 14 13 14 15 15 15 14 13 13 13 13 13 12 11 7 9 10 11 10 11
16 16 15 15 15 16 16 16 17 16 14 14 14 14 13 13 12 12 13 13 13 12
16 16 16 17 16 16 16 17 17 17 16 15 14 14 14 14 14 15 15 14 14 14
15 16 16 16 17 17 17 18 18 19 17 16 16 14 14 14 15 16 16 16 16 15
15 15 15 15 15 16 17 17 18 19 19 18 17 16 15 15 16 17 17 17 17 16

GFSNIL_con_lsi_105.txt.gz
Lid_Strength_Index
7 5 2 1 1 1 2 1 1 1 1 1 1 0 1 1 1 1 1 1 1 1
8 6 1 1 1 1 1 1 1 1 1 1 1 1 1 1 1 1 1 1 1 1
9 7 2 1 1 1 1 1 1 1 1 1 1 1 1 1 1 1 1 1 1 1
10 8 6 1 1 1 1 1 1 1 1 1 1 1 1 1 1 2 1 1 1 2
11 10 9 7 3 1 1 1 1 1 1 1 1 1 1 2 2 2 2 1 2 2
12 11 10 10 8 2 1 1 1 1 1 1 1 1 1 1 2 1 1 1 2 2
13 12 11 12 11 11 7 2 2 1 1 1 1 1 1 1 2 1 1 1 1 1
14 13 12 12 12 12 12 11 6 3 5 3 4 4 1 1 2 2 2 3 4 7
14 15 14 13 13 14 13 14 13 12 10 11 11 13 11 4 4 4 5 7 8 10
15 15 16 15 15 14 14 14 16 15 14 14 13 13 12 11 9 11 11 11 10 10
15 16 16 16 16 16 16 16 16 16 16 15 14 14 13 13 12 13 14 13 13 12
14 15 15 16 17 17 18 18 18 17 17 16 16 15 14 14 15 15 16 15 14 14
14 15 15 15 16 16 16 18 18 19 18 18 18 16 16 16 16 17 16 15 15 15
14 14 14 14 15 15 16 16 17 18 19 19 18 18 17 16 17 17 18 17 17 16

GFSNIL_con_lsi_108.txt.gz
Lid_Strength_Index
9 8 7 7 5 4 2 1 1 1 1 1 1 1 1 1 1 2 2 2 2 2
9 8 8 7 6 4 2 1 1 1 1 1 1 1 2 3 2 1 1 1 1 2
10 9 9 8 8 4 1 1 1 1 1 1 1 1 2 1 1 2 2 1 2 2
10 10 10 10 9 9 6 1 1 1 1 1 1 1 1 2 2 2 2 2 2 2
11 11 11 10 9 8 9 5 1 1 1 2 2 2 2 2 2 2 3 2 2 2
12 12 12 12 11 9 10 8 5 1 2 2 2 2 2 2 2 2 2 2 2 2
13 12 12 12 12 11 11 11 11 5 2 2 2 2 2 2 2 2 2 2 1 2
13 13 13 14 14 13 12 12 12 12 11 10 8 8 5 2 2 2 2 3 6 8
13 14 14 15 15 15 15 14 14 14 14 13 13 14 12 5 2 3 3 7 8 10
13 14 15 15 16 17 17 16 16 15 15 16 15 14 13 11 10 11 12 11 10 11
14 14 14 15 16 17 18 18 18 17 16 17 16 15 15 14 14 14 15 15 14 14
14 15 15 15 15 16 17 18 18 18 18 18 17 16 15 15 16 17 16 16 15 15
14 15 15 15 15 15 15 16 17 18 18 18 18 16 16 16 17 18 17 17 17 16
14 14 15 15 15 15 15 16 17 17 17 17 18 18 17 17 18 18 18 18 18 17

GFSNIL_con_lsi_111.txt.gz
Lid_Strength_Index
10 9 9 8 8 8 7 5 4 3 1 1 1 1 1 1 1 2 2 2 2 2
10 10 9 9 8 7 6 6 4 4 2 3 1 1 1 1 2 3 4 4 2 2
10 10 9 9 9 9 8 7 6 3 1 1 3 1 1 2 2 2 2 1 2 2
11 10 10 10 10 10 9 8 8 6 2 2 1 1 2 2 2 3 2 2 2 2
11 11 11 11 10 11 10 9 9 7 3 1 2 1 2 2 2 2 2 2 2 2
12 12 12 12 12 12 11 11 11 9 8 5 2 2 2 2 2 2 2 2 2 3
12 12 12 13 13 13 12 12 12 11 11 10 9 9 7 2 2 3 4 3 3 2
12 12 12 13 14 14 14 14 14 13 13 13 13 13 12 9 3 4 4 5 5 6
12 12 13 13 14 15 16 16 16 16 15 15 14 14 14 12 3 4 5 7 9 10
12 13 13 13 14 15 16 17 17 17 17 17 16 14 15 14 12 10 10 10 10 11
13 14 13 14 14 15 16 17 18 18 18 17 17 15 15 16 16 16 16 16 15 14
14 15 15 15 15 15 16 17 17 17 17 18 17 16 16 16 17 18 18 17 16 16
14 15 16 16 16 16 16 17 17 18 18 17 17 16 16 17 18 19 19 17 17 16
14 15 16 16 17 17 17 18 18 18 18 18 17 17 16 17 19 19 19 19 18 17

GFSNIL_con_lsi_114.txt.gz
Lid_Strength_Index
10 10 10 11 11 10 8 7 6 6 5 5 4 2 1 1 2 3 2 2 2 2
11 11 11 11 10 9 9 8 7 7 6 6 3 3 1 1 2 2 1 2 2 2
11 10 11 11 11 10 10 9 9 8 7 6 4 3 2 1 1 2 2 2 2 2
12 12 11 11 11 11 10 10 10 9 8 7 6 3 3 2 2 2 2 2 2 2
12 12 12 12 12 12 12 11 11 10 9 9 9 7 2 3 2 2 2 2 2 2
13 13 13 13 13 12 12 12 12 11 11 11 11 10 8 3 2 2 2 2 2 3
13 13 13 13 13 13 13 13 13 13 12 12 12 12 12 9 5 2 2 2 2 2
13 12 12 13 12 13 13 14 14 14 14 14 13 13 13 10 7 5 2 3 4 4
13 13 13 13 13 14 14 14 15 15 15 15 15 14 14 13 13 14 10 8 10 11
13 14 14 13 14 14 15 16 16 16 16 16 16 15 15 15 15 15 16 16 13 12
14 14 14 14 14 15 15 16 17 17 17 16 16 15 16 15 16 16 17 17 16 15
15 16 15 16 16 15 16 17 17 17 18 17 17 15 16 17 17 17 17 17 17 16
14 16 17 17 17 17 17 18 18 18 18 17 17 15 15 16 18 19 18 18 18 16
15 15 16 16 17 17 17 18 19 19 18 18 18 17 15 15 17 18 19 19 18 18

GFSNIL_con_lsi_117.txt.gz
Lid_Strength_Index
11 11 11 11 11 10 10 9 8 8 8 8 6 5 5 4 3 1 1 2 4 3
11 11 12 11 10 11 11 11 10 9 9 8 7 6 5 3 3 2 1 2 2 3
11 11 11 12 13 12 12 12 12 11 9 9 8 7 6 5 3 3 1 1 2 2
11 11 12 12 12 13 12 12 12 11 10 10 10 9 9 8 3 4 2 2 2 2
12 12 12 13 13 13 14 13 13 12 12 11 11 10 10 11 9 3 2 2 2 2
12 12 12 13 13 13 13 13 13 13 13 12 11 12 11 11 11 9 3 2 2 2
13 13 13 13 13 14 14 14 14 13 13 13 12 12 12 12 10 7 5 2 2 2
13 14 13 13 14 15 15 14 14 14 14 13 13 13 13 12 12 11 11 11 8 5
14 14 15 14 15 15 16 16 15 15 15 14 14 13 14 14 14 14 14 14 14 13
16 16 16 15 15 16 16 16 17 17 16 15 14 13 14 15 15 16 16 16 15 15
15 16 16 17 17 17 17 18 18 17 17 16 15 14 14 15 16 17 17 17 16 16
15 16 17 18 18 18 17 18 18 17 17 17 16 14 14 16 17 18 18 17 17 17
14 16 18 18 19 18 18 18 17 17 17 16 17 15 15 16 17 18 18 18 18 17
15 16 17 17 17 17 18 18 18 18 17 17 17 17 16 16 18 19 19 19 19 18

GFSNIL_con_lsi_120.txt.gz
Lid_Strength_Index
12 12 12 12 12 12 12 12 11 9 9 9 9 8 7 6 5 3 3 3 2 2
12 12 12 12 12 11 12 12 11 11 11 10 9 9 8 7 6 5 3 3 2 2
12 12 12 12 12 12 12 11 12 12 11 11 11 11 10 9 9 8 6 3 2 2
13 13 13 12 12 12 12 12 12 12 12 12 12 11 12 12 10 9 8 4 3 2
13 13 13 13 13 13 13 12 12 12 13 13 13 12 12 12 11 10 9 7 4 2
14 14 14 13 14 14 14 13 13 13 13 13 13 13 13 12 11 10 9 9 7 3
14 14 14 14 14 14 14 14 14 14 13 13 13 13 13 12 12 12 12 11 11 10
15 15 15 15 15 15 15 15 15 15 14 13 13 13 13 13 13 13 13 13 13 12
15 16 16 16 16 17 17 16 16 16 15 15 14 13 13 13 14 14 15 15 15 14
15 16 16 16 17 17 18 18 17 16 16 15 14 13 13 14 15 15 16 16 16 16
15 16 16 17 17 18 18 18 17 17 16 16 15 13 14 14 16 16 16 17 16 17
15 16 17 18 19 18 18 18 18 16 16 17 17 14 14 16 16 17 17 17 17 17
14 16 18 18 18 18 21 19 18 18 17 16 17 15 15 16 17 18 18 18 18 17
14 14 16 16 16 16 18 17 17 18 19 18 16 17 15 15 18 19 19 19 20 19

GFSNIL_con_lsi_123.txt.gz
Lid_Strength_Index
11 11 12 12 12 12 12 11 10 10 10 10 10 9 9 9 8 6 5 4 3 2
11 12 12 12 12 12 11 11 11 10 10 10 10 10 10 10 9 7 7 5 4 2
12 12 12 12 13 13 13 12 11 11 11 10 11 11 11 11 10 9 8 7 7 4
13 13 13 13 13 13 13 12 12 11 11 11 11 11 12 11 10 11 10 8 7 6
13 13 13 14 14 13 13 12 13 12 12 11 11 11 12 12 11 11 11 10 10 9
13 14 14 13 13 13 14 14 13 13 12 12 12 12 12 12 13 13 12 12 11 11
14 14 14 14 14 14 14 14 14 13 13 12 12 12 12 12 13 13 13 13 12 13
13 14 14 14 14 14 14 14 14 14 14 13 13 13 13 13 13 13 13 13 13 13
14 14 14 14 14 14 14 14 14 14 15 14 14 13 13 13 14 14 14 14 14 13
14 14 14 14 14 14 14 15 15 15 15 15 14 14 14 14 13 14 14 15 14 15
14 14 14 15 15 15 14 15 15 15 15 15 14 14 14 14 14 14 14 15 14 15
14 15 15 16 15 15 15 15 15 16 16 15 15 14 14 15 15 15 15 15 15 15
14 15 16 15 15 14 14 14 14 15 15 16 15 15 15 15 16 17 16 16 16 16
13 14 14 14 13 13 14 15 15 16 15 15 15 15 15 15 16 17 17 17 17 17

GFSNIL_con_lsi_126.txt.gz
Lid_Strength_Index
9 10 10 10 11 11 11 11 10 10 9 8 8 8 8 8 7 6 6 6 7 6
10 11 11 11 11 12 12 11 11 10 10 9 9 9 8 9 8 8 7 7 7 7
11 11 11 11 12 12 12 12 12 12 11 10 10 9 9 10 9 9 8 8 7 6
10 11 11 12 12 12 11 12 12 12 12 11 11 11 10 10 10 11 11 10 9 7
11 11 11 12 12 12 12 12 12 12 11 11 11 11 11 11 11 12 13 12 11 12
10 10 11 12 12 12 12 12 12 12 12 12 11 11 11 11 12 12 12 13 12 13
10 11 11 11 12 12 12 12 12 12 12 12 12 12 12 11 11 12 12 12 12 13
11 11 11 11 11 11 11 12 12 12 12 12 12 13 13 11 11 12 13 12 13 13
11 11 12 11 11 11 12 12 12 12 12 12 13 14 13 12 12 12 13 14 13 13
11 12 12 12 12 12 12 12 13 13 12 12 12 14 14 13 13 13 14 14 14 14
12 12 12 12 13 13 12 13 14 14 14 13 13 14 14 13 12 13 13 14 14 14
12 13 13 13 13 13 13 13 13 14 14 14 14 14 15 14 12 13 14 14 14 15
13 13 14 13 13 13 13 12 12 13 13 14 14 14 15 14 14 13 13 14 14 16
12 13 13 12 12 12 12 12 13 13 13 13 14 14 14 15 14 14 14 14 15 15

GFSNIL_con_lsi_129.txt.gz
Lid_Strength_Index
8 8 8 9 10 10 10 10 9 10 9 10 9 9 9 8 7 7 7 7 6 6
9 9 9 9 10 10 10 11 10 10 11 10 10 9 9 9 9 9 9 8 8 8
8 9 9 9 10 10 11 11 11 12 11 11 10 10 10 9 9 10 10 10 9 9
8 8 9 10 10 10 11 11 12 12 11 11 11 11 11 10 11 11 11 11 11 12
8 8 9 9 10 10 11 12 12 12 11 11 12 12 11 11 11 11 12 12 12 12
8 8 9 9 9 9 11 11 12 12 12 12 12 12 11 10 11 11 11 12 12 13
9 9 9 9 9 9 10 11 11 11 11 12 12 13 12 11 11 11 11 11 11 12
9 9 9 10 10 10 10 10 11 12 12 12 13 14 13 12 12 12 12 12 12 12
9 9 10 10 10 10 11 11 11 11 11 13 13 14 13 12 12 13 13 14 13 13
10 10 11 10 11 11 12 12 12 12 11 12 13 14 13 12 11 12 13 14 14 14
10 11 10 11 12 12 12 13 13 13 13 13 14 14 14 13 12 12 13 14 15 15
11 12 12 13 13 12 12 13 13 13 14 14 14 14 14 13 11 12 13 13 15 16
12 12 13 13 13 12 11 12 11 12 12 13 14 14 14 15 14 13 13 13 13 15
11 12 11 12 11 11 11 11 11 11 11 12 12 13 14 14 15 14 14 15 15 14

GFSNIL_con_lsi_132.txt.gz
Lid_Strength_Index
8 8 8 9 9 9 10 10 9 9 9 9 9 9 9 9 9 9 9 10 10 9
8 8 9 8 9 9 9 10 10 10 10 10 9 10 10 10 11 11 11 11 10 10
8 8 8 9 9 9 9 10 10 10 11 11 11 11 11 11 11 12 11 11 11 11
8 8 8 9 9 9 9 9 10 10 11 12 12 12 11 11 11 12 12 11 12 12
8 8 8 9 9 8 9 9 9 10 11 12 13 13 13 12 11 12 12 12 12 13
9 9 9 9 9 9 10 10 10 10 12 13 14 14 13 12 12 13 13 12 13 14
9 9 9 9 10 10 10 11 10 11 12 14 14 14 14 12 13 13 13 13 13 14
9 10 10 10 10 10 10 11 10 11 13 14 15 15 14 13 14 14 15 15 15 15
10 11 10 10 10 11 11 12 12 12 13 14 14 13 13 12 13 14 15 17 16 15
10 10 11 11 11 11 12 13 14 14 13 15 15 14 13 12 13 14 15 17 17 17
10 11 11 12 12 12 12 13 14 15 15 15 14 14 13 13 13 14 15 16 17 18
12 12 13 14 13 13 12 13 14 14 15 16 16 13 14 15 14 15 16 16 17 17
12 13 16 13 14 13 12 13 12 13 14 14 16 13 13 15 17 16 17 17 16 14
12 12 12 12 12 13 13 12 12 13 14 15 15 15 13 14 17 16 16 17 17 16

GFSNIL_con_lsi_135.txt.gz
Lid_Strength_Index
9 9 9 9 9 9 9 9 9 9 8 8 8 8 9 9 9 10 10 11 11 11
9 9 9 9 9 9 9 9 9 9 9 9 9 9 9 10 11 11 11 11 11 12
9 9 9 9 10 9 9 9 9 9 10 11 10 10 10 11 11 11 12 12 13 13
9 9 9 9 9 9 10 10 9 11 11 12 11 11 11 11 12 12 12 13 14 14
10 10 11 10 11 11 11 10 11 12 13 13 12 12 12 12 13 14 14 14 15 16
11 11 11 11 11 11 11 11 12 12 13 14 13 12 13 13 14 15 15 15 17 17
11 11 11 11 11 11 12 12 13 13 13 13 13 12 12 13 14 16 16 16 17 17
11 11 11 12 12 13 13 12 12 14 14 14 13 12 12 13 15 17 17 17 17 17
11 12 12 13 12 12 13 13 13 14 15 15 13 12 11 13 14 16 17 18 18 17
12 13 13 12 13 13 14 14 15 15 15 15 15 13 12 12 14 15 16 17 18 17
13 14 13 13 14 15 14 17 17 16 16 16 14 13 13 13 15 16 17 17 17 17
14 14 14 18 19 17 15 16 16 16 17 18 17 13 14 15 16 18 18 17 16 16
13 16 20 20 19 17 16 14 15 16 18 15 18 13 13 16 17 18 17 17 17 14
13 14 15 16 17 17 17 14 15 17 18 18 17 17 13 13 19 18 17 17 18 17

GFSNIL_con_lsi_138.txt.gz
Lid_Strength_Index
11 11 12 10 11 11 10 10 9 9 9 9 9 8 8 8 9 9 10 11 11 11
10 10 10 10 10 11 10 10 10 10 11 10 10 9 8 9 9 9 10 11 12 12
10 10 10 10 11 11 11 10 12 11 11 11 10 10 9 10 10 10 12 13 14 14
10 11 11 12 11 11 11 11 13 13 13 12 11 11 11 11 11 12 14 15 15 15
12 12 12 12 12 11 12 12 12 13 13 12 12 12 12 13 13 14 15 16 17 16
12 12 13 12 12 12 12 13 14 14 14 13 12 12 12 14 15 16 16 16 17 17
13 12 12 12 12 12 13 14 15 14 13 12 11 12 13 14 16 16 17 16 16 16
12 12 12 13 13 13 13 14 14 14 14 12 11 12 14 15 16 16 17 17 16 16
12 13 13 13 14 14 14 14 14 14 14 13 12 11 12 14 15 15 16 17 16 16
12 13 13 14 14 15 15 15 16 15 14 14 13 13 13 14 15 16 16 17 16 16
13 13 14 14 15 16 17 20 20 18 17 15 14 13 13 14 16 17 17 16 16 17
13 14 15 17 18 18 17 20 21 20 17 18 17 13 13 15 17 18 18 16 16 16
14 16 18 20 17 18 19 20 18 19 20 15 19 13 13 16 19 19 18 18 17 14
14 14 15 17 19 15 17 20 21 21 22 21 17 16 13 13 21 21 18 18 18 17

GFSNIL_con_lsi_144.txt.gz
Lid_Strength_Index
14 14 14 14 14 14 14 15 14 14 13 11 10 11 11 10 12 12 12 11 11 10
14 14 14 14 14 15 15 14 14 14 14 13 12 12 11 11 13 12 12 12 12 12
13 13 14 14 15 16 16 15 15 14 14 13 13 13 13 13 12 13 14 13 13 12
14 14 14 15 15 16 16 15 15 15 14 14 14 14 14 13 13 14 14 14 14 14
14 14 15 15 16 16 16 16 15 14 14 14 15 15 14 14 15 15 14 14 14 14
14 15 15 16 16 17 17 16 15 14 14 14 15 15 15 15 14 14 14 14 14 14
15 16 16 15 16 16 16 16 16 15 13 14 14 15 15 14 14 14 14 14 15 15
15 15 15 15 16 16 16 16 15 14 12 12 13 14 15 14 15 15 14 15 15 15
15 15 16 15 16 16 16 16 15 13 13 13 14 13 13 14 15 15 15 15 15 15
15 15 16 16 17 17 17 17 17 16 14 15 14 13 13 14 15 16 16 15 16 17
15 16 16 17 19 19 20 23 23 20 18 15 14 13 13 14 16 16 16 16 16 17
15 16 17 20 20 20 20 22 26 25 21 19 17 14 14 16 17 18 18 16 15 16
15 17 19 20 21 24 24 24 21 22 24 16 22 14 14 17 17 19 18 18 17 14
15 17 17 19 20 23 24 24 26 25 26 22 18 16 14 15 19 19 18 19 19 17

GFSNIL_con_lsi_147.txt.gz
Lid_Strength_Index
11 11 11 11 11 12 12 12 11 11 10 10 10 9 10 10 10 10 10 11 11 11
10 11 11 11 11 12 12 12 11 11 10 10 10 10 10 11 12 11 11 11 11 10
11 11 11 12 12 13 13 12 11 11 11 11 11 11 12 12 12 12 12 11 10 10
12 11 12 12 13 13 13 12 12 11 12 13 13 12 12 13 13 13 13 11 11 11
12 12 13 13 13 13 13 12 12 12 13 13 14 13 13 13 13 13 13 12 12 12
13 13 13 14 14 14 13 13 12 12 13 14 14 14 14 13 13 12 13 13 12 12
13 13 14 14 14 14 13 13 13 13 13 13 14 13 13 13 13 12 13 12 12 12
13 13 14 14 14 14 14 13 13 13 13 13 13 13 13 13 13 12 13 13 13 12
13 13 14 14 14 14 15 14 13 13 14 13 13 13 14 13 13 13 13 14 14 13
14 14 14 14 15 15 15 14 14 14 14 13 13 13 14 14 13 13 14 14 14 15
14 15 15 15 16 16 15 15 15 15 14 13 13 13 14 14 13 13 14 14 14 15
14 15 16 17 18 17 16 16 16 14 14 14 14 14 14 14 14 14 14 14 14 14
14 16 18 18 18 17 16 15 14 15 14 14 14 14 14 14 13 14 14 14 14 14
14 16 17 17 17 17 16 16 16 16 15 15 14 14 14 15 14 14 15 15 15 14

GFSNIL_con_lsi_150.txt.gz
Lid_Strength_Index
7 7 8 8 8 9 9 9 8 8 8 9 8 8 8 8 8 7 7 8 8 9
8 8 9 9 9 9 9 9 9 9 9 9 9 9 9 9 9 8 8 8 8 9
8 8 9 9 10 10 10 9 9 9 9 9 9 9 9 10 10 10 9 9 9 9
9 9 9 10 10 11 10 10 9 9 10 10 10 10 10 10 10 10 10 10 10 10
9 9 10 11 11 11 11 10 10 10 11 11 11 11 11 11 11 11 11 11 10 10
11 11 12 12 13 11 11 10 10 11 11 11 11 12 11 11 11 11 11 11 11 10
12 12 12 13 13 12 11 11 10 11 11 12 12 12 12 11 11 11 11 11 10 11
12 12 13 13 12 12 11 10 10 11 11 11 12 12 12 11 11 11 11 11 11 12
13 13 13 13 13 13 12 11 11 12 12 12 14 15 14 11 11 11 11 12 11 12
13 14 14 14 14 13 13 11 12 12 12 13 13 15 14 13 11 11 12 12 12 13
13 14 14 14 14 13 12 12 13 13 12 13 14 15 14 12 11 12 12 12 13 13
13 14 14 15 15 14 13 14 14 13 13 14 14 14 13 12 12 12 13 13 13 14
13 14 15 15 15 14 13 14 13 14 13 14 14 14 13 12 11 13 12 12 13 15
14 15 15 14 14 14 13 13 14 13 13 13 13 13 14 14 12 12 12 12 13 14

GFSNIL_con_lsi_153.txt.gz
Lid_Strength_Index
4 5 5 5 6 6 7 7 7 7 7 7 8 8 8 8 8 7 8 8 7 7
5 5 5 5 6 7 7 7 7 7 8 8 8 8 9 9 9 8 8 7 7 7
5 5 5 6 7 7 7 8 8 8 8 9 9 9 9 9 9 9 8 8 8 8
7 6 6 7 8 9 9 8 9 9 10 10 10 10 9 10 10 9 9 9 9 9
7 7 8 9 9 9 9 9 10 10 11 11 11 10 10 10 10 10 10 9 9 9
8 9 10 11 11 11 10 11 11 11 12 12 11 11 10 10 10 10 10 10 10 10
9 10 11 11 11 11 11 11 12 12 12 12 12 10 10 10 10 11 11 11 11 12
10 11 11 12 12 12 11 12 12 12 12 12 11 11 11 10 11 11 12 12 13 13
11 12 12 12 13 13 12 12 12 12 13 13 13 14 13 11 12 12 12 12 12 12
12 12 13 14 14 14 13 12 13 13 12 14 14 14 13 11 12 12 12 12 12 13
13 13 14 14 14 13 12 12 12 11 12 13 14 14 13 12 12 13 13 13 12 13
14 15 15 14 13 13 13 13 13 12 13 14 15 14 14 12 13 13 13 13 13 14
13 13 14 14 13 13 13 13 13 13 13 14 15 14 13 12 12 13 13 14 15 15
13 14 14 14 13 13 13 13 13 14 14 14 14 14 14 13 11 11 12 12 14 15

GFSNIL_con_lsi_156.txt.gz
Lid_Strength_Index
4 6 7 7 7 7 7 7 7 7 8 8 8 9 9 9 9 9 10 11 10 10
4 6 6 6 7 7 7 7 8 8 8 8 8 9 10 10 10 10 10 10 11 11
6 6 6 7 7 7 8 8 8 8 9 9 9 10 10 11 10 11 11 11 11 11
6 6 7 8 8 8 9 9 9 10 10 10 10 10 11 11 11 12 12 11 11 11
6 7 8 9 9 9 9 9 10 11 11 11 11 11 11 12 12 12 12 11 11 11
6 6 8 10 10 10 10 11 11 12 12 12 12 12 12 12 12 12 12 12 12 13
6 8 9 10 11 11 11 11 12 12 12 12 12 12 12 12 13 13 13 13 14 15
8 9 10 11 11 11 11 12 12 13 13 13 13 13 12 13 13 13 14 15 15 16
9 10 11 11 12 11 13 13 13 14 13 13 15 14 13 12 13 13 14 16 16 16
10 12 12 12 12 12 13 13 14 14 15 16 15 13 12 12 13 14 14 15 16 16
12 12 13 13 13 13 13 14 14 14 15 15 14 13 12 13 14 14 15 15 16 16
12 13 13 14 14 14 14 14 13 14 15 15 15 13 13 14 15 16 16 16 16 17
13 13 14 14 14 14 13 13 13 14 15 15 15 14 13 14 15 17 17 17 17 16
13 14 14 13 13 13 14 13 14 14 15 15 15 15 15 13 14 15 16 17 18 18

GFSNIL_con_lsi_159.txt.gz
Lid_Strength_Index
6 8 8 8 9 9 9 9 9 9 9 9 9 9 10 10 11 11 11 11 12 13
5 7 8 8 8 9 9 8 9 9 9 10 10 10 10 11 11 11 11 12 12 12
4 5 6 7 8 8 8 8 9 9 9 10 10 11 11 11 12 12 12 12 12 13
5 5 6 7 8 8 8 8 9 10 10 10 11 11 12 12 12 12 12 12 12 13
5 5 6 7 8 8 9 9 10 10 11 11 11 12 12 12 12 12 13 13 14 14
6 6 7 8 8 9 9 11 11 11 11 11 11 12 12 12 13 14 15 16 16 16
5 7 8 9 8 9 10 11 11 11 11 11 12 12 12 13 14 15 16 16 17 17
6 8 8 9 9 9 11 12 12 12 12 12 12 13 13 13 15 16 17 17 17 16
8 8 9 9 10 10 12 13 13 13 13 14 13 14 12 13 15 16 17 17 17 16
8 9 9 10 11 12 12 12 13 14 15 15 14 13 12 12 14 15 16 16 17 17
10 11 11 11 12 12 12 12 13 14 15 15 14 13 13 13 14 15 16 17 17 18
11 12 12 12 12 12 12 13 15 14 15 15 14 13 13 14 16 17 17 18 18 18
11 11 12 12 13 12 13 13 15 15 15 14 14 13 13 15 16 18 18 18 18 17
11 11 12 12 13 13 14 15 15 15 15 15 15 14 13 14 17 18 19 19 19 18

GFSNIL_con_lsi_162.txt.gz
Lid_Strength_Index
7 8 8 8 8 8 8 9 9 10 10 10 10 10 11 11 11 12 12 12 12 12
7 8 7 7 6 7 7 8 8 9 10 11 11 11 11 11 11 11 11 12 12 12
6 6 6 6 6 6 6 6 8 9 9 10 11 11 11 11 11 12 12 12 12 12
6 6 6 6 5 5 5 6 7 8 9 10 11 11 11 12 12 12 13 12 13 13
5 6 7 7 6 6 6 7 7 8 9 10 10 11 11 11 12 12 13 14 14 13
5 6 7 7 6 6 7 7 8 8 9 10 11 11 11 12 13 14 14 15 15 15
6 7 7 6 6 7 7 8 8 8 9 10 11 11 12 13 15 15 15 16 16 17
7 7 7 7 7 8 8 8 8 10 10 11 12 11 13 14 15 15 16 16 16 16
7 6 7 8 9 9 9 9 10 11 11 12 11 11 12 14 15 15 16 17 16 16
8 8 8 8 9 10 11 11 10 11 12 13 12 11 12 12 14 16 17 17 17 17
9 9 9 10 11 11 12 12 12 13 13 13 12 12 11 13 15 15 16 16 16 16
9 10 10 11 11 11 12 13 14 13 13 13 12 12 12 14 16 17 17 17 16 16
9 9 10 10 11 11 13 13 14 14 13 12 13 13 14 15 16 18 18 17 16 15
9 9 10 10 10 12 13 14 14 14 14 15 13 13 14 15 16 17 18 18 17 16